User: anonymous   Login
Location: Montague
(41.3030°N, 74.7940°W)
Time: 15:29:05
(UTC-04:00)
Language:

Cosmos 1461 - Orbit

View from above orbital plane
View from above orbital plane
View from above satellite
View from above satellite

Ground track
Ground track

The orbit data is extracted from the following two-line orbital elements,

1 14064U 83044A   18147.55412192  .00000199  00000-0  31093-4 0  9993
2 14064  65.0005 298.8917 0120678 269.0952  89.6335 14.94077968774797
Epoch (UTC): 27 May 2018 13:17:56
Eccentricity: 0.0120678
inclination: 65.0005°
perigee height: 501 km
apogee height: 669 km
right ascension of ascending node: 298.8917°
argument of perigee: 269.0952°
revolutions per day: 14.94077968
mean anomaly at epoch: 89.6335°
orbit number at epoch: 77479

The dashed part of the orbit path shows where the satellite is in the earth's shadow,  

DLR